RESURS-P 4

Last updated on Wed Oct 15 2025 00:02:30 GMT+0000 (Coordinated Universal Time)

1 59371U 24061A 25287.29568287 .00005708 00000+0 18060-3 0 9996 2 59371 97.2438 234.8274 0002886 116.8205 243.3333 15.33154965 86105
UTC large
Height (km)
Speed (km/s)
/
Latitude / Longitude
Inclination (degrees)
Orbital Period (minutes)
Azimuth
Elevation
Range (km)
Doppler Factor

Next 0 passes for location: London (51.5072 / 0.1276)

Sorry there are no passes over London.